sat.trackr.live / text

‹ back to catalog

COSMOS 2432 (719)

NORAD 32276 · 2007-052B

PAYLOAD ACTIVE UNKNOWN

§ Identity

Operator
Country
CIS
Launch date
2007-10-26
Launch site
TYMSC
Launch vehicle
Mass (kg)
RCS (m²)
3.16

Purposes: nav

External: N2YO · Heavens-Above · Gunter

§ Orbital elements

Epoch: 2026-09-11T19:16:30.807840Z

Period
675.73 min
Inclination
65.5386°
Eccentricity
0.0008595
Mean motion
2.13102997 rev/d
Perigee alt
19,107.9 km
Apogee alt
19,151.7 km
Semi-major
25,507.9 km
B*
0.0000e+0
RAAN
313.1454°
Arg perigee
307.6500°
Mean anomaly
53.3316°
Rev number
14,693

§ Raw data

COSMOS 2432 (719)1 32276U 07052B   26254.80313435 -.00000043  00000+0  00000+0 0  99962 32276  65.5386 313.1454 0008595 307.6500  53.3316  2.13102997146932

JSON: /api/v1/satellites/32276 · /tle

For live sub-satellite position, see the globe view (requires WebGL).

§ Visibility from observer

Set your observer location to see the next 7 days of passes ≥ 10°. The values pass through the URL so the page stays shareable.

No JS? Fill the form by hand. The geolocation button needs JavaScript.